Pratham
1 41785U 16058C 16273.70385263 .00000236 00000-0 55179-4 0 9990
2 41785 98.2064 331.2389 0030452 256.4181 215.3658 14.63224437 484
OBJECT D
1 41786U 16059D 16273.77300866 .00714965 00000-0 12862 0 0 9993
2 41786 98.1952 331.3211 0026994 263.7093 213.3702 14.63938446 495
OBJECT E
1 41787U 16059E 16273.70372953 .00000265 00000-0 60346-4 0 9999
2 41787 98.2065 331.2389 0029405 256.1344 217.6954 14.63441212 487
OBJECT F
1 41788U 16059F 16273.70559420 .00000564 00000-0 11733-3 0 9993
2 41788 98.2066 331.2381 0028509 258.6686 227.1994 14.63619690 488
OBJECT G
1 41789U 16059G 16273.14415428 .00000850 00000-0 17101-3 0 9994
2 41789 98.2079 330.6857 0027193 253.3961 159.4261 14.63952447 417
OBJECT H
1 41790U 16059H 16273.31231568 -.00000033 00000-0 25055-5 0 9999
2 41790 98.1060 327.8380 0010333 225.2255 198.9152 14.50098024 458
OBJECT J
1 41791U 16059J 16273.75206038 -.00000006 00000-0 85274-5 0 9991
2 41791 98.2061 331.2840 0032417 256.3325 103.4266 14.62762483 526
OBJECT K
1 41792U 16059K 16273.41959556 -.00000044 00000-0 10953-5 0 9999
2 41792 98.2066 330.9646 0026739 257.0054 167.6479 14.64040707 448
